Tracking 30070 objects as of 16-Jan-2025
HD Live streaming from Space Station
objects crossing your sky now

OBJECT BE

Track OBJECT BE now!
10-day predictions


NORAD ID: 43810
Int'l Code: 2018-099BE
Perigee: 552.2 km
Apogee: 562.5 km
Inclination: 97.5 °
Period: 95.7 minutes
Semi major axis: 6928 km
RCS: Unknown
Launch date: December 3, 2018
Source: (TBD)
Launch site: AIR FORCE WESTERN TEST RANGE (AFWTR)
Your satellite tracking list
Your tracking list is empty




NASA's NSSDC Master Catalog

Two Line Element Set (TLE):
1 43810U 18099BE  25015.68668704  .00005851  00000-0  41147-3 0  9990
2 43810  97.4635  67.6235 0007422 328.4564  31.6217 15.05430907334002
Source of the keplerian elements: AFSPC